GSAT0103 (PRN E19)

Last updated on Feb. 21, 2020, 4:44 a.m. UTC

1 38857U 12055A   20051.09084296 -.00000035  00000-0  00000-0 0  9999
2 38857  54.9614 165.0397 0002627 252.7903 107.1417  1.70473704 45797
UTC
Height (km)
Latitude
Longitude
Inclination
Orbital Period
UTC large
Height (km)
Speed (km/s)
/
Latitude / Longitude
Inclination (degrees)
Orbital Period (minutes)
Azimuth
Elevation
Range (km)
Doppler Factor
iOS Compass Heading
iOS Angle

Next 30 passes for location: Hong Kong

Rise time Rise Azimuth (degrees) Set time Set Azimuth (degrees) Duration Max altitude (degrees)

No matching passes for this satellites